This demonstration page uses our WeatherBlox Daily Observations layout. Learn more.

Left ArrowRight Arrow

41.12389, -100.76542

Hourly Observations for May 7, 2017

Temp ( °F °C ) Dew Point ( °F °C ) Humidity (%) Winds ( mph kmh ) Pressure ( in mb ) Visibility ( mi km ) Precip ( " mm )
12:53 am 00:53 Clear 65 18.3 46 7.8 51 51 SE 10 17 29.78 1008 10 16 0.00 0.00
1:53 am 01:53 Clear 64 17.8 45 7.2 50 50 SSE 15 24 29.77 1008 10 16 0.00 0.00
2:53 am 02:53 Clear 61 16.1 46 7.8 58 58 SE 10 17 29.79 1009 10 16 0.00 0.00
3:53 am 03:53 Clear 60 15.6 46 7.8 60 60 SE 9 15 29.78 1008 10 16 0.00 0.00
4:53 am 04:53 Clear 56 13.3 46 7.8 70 70 ESE 7 11 29.78 1008 10 16 0.00 0.00
5:53 am 05:53 Clear 59 15 47 8.3 64 64 SE 9 15 29.76 1008 10 16 0.00 0.00
6:53 am 06:53 Sunny 60 15.6 47 8.3 62 62 SE 9 15 29.77 1008 10 16 0.00 0.00
7:53 am 07:53 Sunny 63 17.2 48 8.9 58 58 SE 10 17 29.76 1008 10 16 0.00 0.00
8:53 am 08:53 Sunny 67 19.4 48 8.9 51 51 S 15 24 29.76 1008 10 16 0.00 0.00
9:53 am 09:53 Sunny 70 21.1 49 9.4 47 47 S 14 22 29.75 1008 10 16 0.00 0.00
10:53 am 10:53 Sunny 73 22.8 51 10.6 46 46 SSE 15 24 29.74 1007 10 16 0.00 0.00
11:53 am 11:53 Sunny 77 25 53 11.7 43 43 SSE 14 22 29.72 1006 10 16 0.00 0.00
12:53 pm 12:53 Sunny 81 27.2 52 11.1 37 37 SSE 16 26 29.70 1006 10 16 0.00 0.00
1:53 pm 13:53 Sunny 82 27.8 52 11.1 35 35 SSE 14 22 29.68 1005 10 16 0.00 0.00
2:53 pm 14:53 Sunny 84 28.9 55 12.8 37 37 SSE 15 24 29.67 1005 10 16 0.00 0.00
3:53 pm 15:53 Sunny 85 29.4 54 12.2 35 35 S 15 24 29.64 1004 10 16 0.00 0.00
4:53 pm 16:53 Sunny 87 30.6 53 11.7 31 31 SSE 15 24 29.62 1003 10 16 0.00 0.00
5:53 pm 17:53 Sunny 84 28.9 51 10.6 32 32 S 14 22 29.62 1003 10 16 0.00 0.00
6:53 pm 18:53 Sunny 81 27.2 53 11.7 38 38 S 8 13 29.62 1003 10 16 0.00 0.00
7:53 pm 19:53 Sunny 78 25.6 54 12.2 43 43 S 5 7 29.63 1004 10 16 0.00 0.00
8:53 pm 20:53 Clear 77 25 48 8.9 36 36 S 9 15 29.62 1003 10 16 0.00 0.00
9:53 pm 21:53 Clear 77 25 47 8.3 35 35 SSW 14 22 29.66 1004 10 16 0.00 0.00
10:53 pm 22:53 Clear 69 20.6 50 10 51 51 SSW 5 7 29.69 1005 10 16 0.00 0.03
11:53 pm 23:53 Clear 68 20 51 10.6 55 55 SSW 6 9 29.72 1006 10 16 0.00 0.00

Powered by AerisWeather